| time (UTC) | temp C | wind direction | speed KPH | gust KPH | rain 1hr cm | rain 24hr cm | rain mn cm | humidity % | barometer mb |
| 20260507181936 | 11 | 0 | 0.0 | 0.0 | 0.00 | 0.00 | 0.00 | 1015.4 | |
| 20260507181436 | 11 | 0 | 0.0 | 0.0 | 0.00 | 0.00 | 0.00 | 1015.0 | |
| 20260507180428 | 11 | 0 | 0.0 | 0.0 | 0.00 | 0.00 | 0.00 | 1014.2 | |
| 20260507175928 | 11 | 0 | 0.0 | 0.0 | 0.00 | 0.00 | 0.00 | 1017.6 | |
| 20260507175424 | 12 | 0 | 0.0 | 0.0 | 0.00 | 0.00 | 0.00 | 1013.2 | |
| 20260507174923 | 12 | 0 | 0.0 | 0.0 | 0.00 | 0.00 | 0.00 | 1013.5 | |
| 20260507174420 | 12 | 0 | 0.0 | 0.0 | 0.00 | 0.00 | 0.00 | 1014.2 | |
| 20260507173920 | 12 | 0 | 0.0 | 0.0 | 0.00 | 0.00 | 0.00 | 1013.0 | |
| 20260507173419 | 12 | 232 | 0.0 | 1.6 | 0.00 | 0.00 | 0.00 | 1012.8 | |
| 20260507172919 | 11 | 229 | 0.0 | 1.6 | 0.00 | 0.00 | 0.00 | 1014.0 | |
| 20260507172418 | 11 | 0 | 0.0 | 0.0 | 0.00 | 0.00 | 0.00 | 1011.4 | |
| 20260507171918 | 12 | 224 | 0.0 | 1.6 | 0.00 | 0.00 | 0.00 | 1015.4 | |
| 20260507171414 | 12 | 214 | 0.0 | 3.2 | 0.00 | 0.00 | 0.00 | 1012.0 | |
| 20260507170914 | 12 | 0 | 0.0 | 0.0 | 0.00 | 0.00 | 0.00 | 1013.7 | |
| 20260507170413 | 12 | 0 | 0.0 | 0.0 | 0.00 | 0.00 | 0.00 | 1014.4 | |
| 20260507165919 | 13 | 56 | 0.0 | 0.0 | 0.00 | 0.00 | 0.00 | 1012.3 | |
| 20260507165412 | 13 | 105 | 1.6 | 4.8 | 0.00 | 0.00 | 0.00 | 1013.4 | |
| 20260507164912 | 12 | 222 | 1.6 | 4.8 | 0.00 | 0.00 | 0.00 | 1014.8 | |
| 20260507164411 | 12 | 242 | 0.0 | 3.2 | 0.00 | 0.00 | 0.00 | 1013.5 | |
| 20260507163911 | 12 | 77 | 0.0 | 4.8 | 0.00 | 0.00 | 0.00 | 1015.5 | |
| 20260507163408 | 12 | 232 | 0.0 | 3.2 | 0.00 | 0.00 | 0.00 | 1016.1 | |
| 20260507162407 | 13 | 127 | 1.6 | 6.4 | 0.00 | 0.00 | 0.00 | 1013.7 | |
| 20260507161907 | 13 | 111 | 4.8 | 9.7 | 0.00 | 0.00 | 0.00 | 1015.2 | |
| 20260507161406 | 13 | 94 | 6.4 | 9.7 | 0.00 | 0.00 | 0.00 | 1013.9 | |
| 20260507160909 | 13 | 94 | 8.0 | 11.3 | 0.00 | 0.00 | 0.00 | 1014.3 | |
| 20260507160405 | 13 | 124 | 8.0 | 11.3 | 0.00 | 0.00 | 0.00 | 1013.7 | |
| 20260507155905 | 13 | 114 | 9.7 | 12.9 | 0.00 | 0.00 | 0.00 | 1017.8 | |
| 20260507155402 | 12 | 96 | 8.0 | 11.3 | 0.00 | 0.00 | 0.00 | 1012.8 | |
| 20260507154902 | 13 | 93 | 4.8 | 9.7 | 0.00 | 0.00 | 0.00 | 1013.6 | |
| 20260507154401 | 13 | 51 | 4.8 | 9.7 | 0.00 | 0.00 | 0.00 | 1013.5 | |
| 20260507153859 | 13 | 72 | 9.7 | 11.3 | 0.00 | 0.00 | 0.00 | 1012.5 | |
| 20260507153359 | 12 | 70 | 8.0 | 14.5 | 0.00 | 0.00 | 0.00 | 1009.9 | |
| 20260507152858 | 13 | 70 | 9.7 | 12.9 | 0.00 | 0.00 | 0.00 | 1015.2 | |
| 20260507152357 | 13 | 75 | 8.0 | 11.3 | 0.00 | 0.00 | 0.00 | 1016.6 | |
| 20260507151856 | 13 | 79 | 11.3 | 14.5 | 0.00 | 0.00 | 0.00 | 1013.3 | |
| 20260507151354 | 13 | 104 | 11.3 | 14.5 | 0.00 | 0.00 | 0.00 | 1020.1 | |
| 20260507150853 | 13 | 62 | 11.3 | 16.1 | 0.00 | 0.00 | 0.00 | 1013.5 | |
| 20260507150353 | 13 | 89 | 4.8 | 14.5 | 0.00 | 0.00 | 0.00 | 1010.8 | |
| 20260507145852 | 13 | 13 | 3.2 | 6.4 | 0.00 | 0.00 | 0.00 | 1016.8 | |
| 20260507145353 | 13 | 31 | 4.8 | 9.7 | 0.00 | 0.00 | 0.00 | 1015.4 | |
| 20260507144851 | 13 | 30 | 3.2 | 9.7 | 0.00 | 0.00 | 0.00 | 1010.1 | |
| 20260507144349 | 12 | 35 | 4.8 | 11.3 | 0.00 | 0.00 | 0.00 | 1016.1 | |
| 20260507143849 | 13 | 27 | 6.4 | 11.3 | 0.00 | 0.00 | 0.00 | 1013.5 | |
| 20260507143348 | 12 | 15 | 8.0 | 11.3 | 0.00 | 0.00 | 0.00 | 1014.4 | |
| 20260507142848 | 12 | 25 | 8.0 | 14.5 | 0.00 | 0.00 | 0.00 | 1007.4 | |
| 20260507142347 | 12 | 346 | 4.8 | 9.7 | 0.00 | 0.00 | 0.00 | 1017.6 | |
| 20260507141847 | 13 | 66 | 6.4 | 12.9 | 0.00 | 0.00 | 0.00 | 1016.6 | |
| 20260507141350 | 13 | 44 | 3.2 | 9.7 | 0.00 | 0.00 | 0.00 | 1012.7 | |
| 20260507140846 | 13 | 281 | 0.0 | 1.6 | 0.00 | 0.00 | 0.00 | 1014.0 | |
| 20260507140345 | 13 | 23 | 3.2 | 8.0 | 0.00 | 0.00 | 0.00 | 1012.9 | |
| 20260507135845 | 13 | 27 | 4.8 | 12.9 | 0.00 | 0.00 | 0.00 | 1017.8 | |
| 20260507135344 | 13 | 38 | 6.4 | 9.7 | 0.00 | 0.00 | 0.00 | 1016.5 | |
| 20260507134837 | 13 | 62 | 8.0 | 11.3 | 0.00 | 0.00 | 0.00 | 1006.4 | |
| 20260507134412 | 13 | 72 | 9.7 | 12.9 | 0.00 | 0.00 | 0.00 | 1010.5 | |
| 20260507134336 | 13 | 72 | 9.7 | 12.9 | 0.00 | 0.00 | 0.00 | 1010.5 | |
| 20260507133835 | 13 | 83 | 3.2 | 11.3 | 0.00 | 0.00 | 0.00 | 1015.5 | |
| 20260507133339 | 13 | 101 | 4.8 | 11.3 | 0.00 | 0.00 | 0.00 | 1015.2 | |
| 20260507132834 | 13 | 52 | 8.0 | 14.5 | 0.00 | 0.00 | 0.00 | 1016.1 | |
| 20260507132332 | 12 | 63 | 6.4 | 11.3 | 0.00 | 0.00 | 0.00 | 1012.7 | |
| 20260507131832 | 13 | 59 | 6.4 | 12.9 | 0.00 | 0.00 | 0.00 | 1018.2 | |
| 20260507131328 | 13 | 11 | 8.0 | 12.9 | 0.00 | 0.00 | 0.00 | 1016.5 | |
| 20260507130828 | 13 | 62 | 6.4 | 16.1 | 0.00 | 0.00 | 0.00 | 1014.9 | |
| 20260507130325 | 13 | 56 | 8.0 | 16.1 | 0.00 | 0.00 | 0.00 | 1014.7 | |
| 20260507125824 | 13 | 359 | 6.4 | 12.9 | 0.00 | 0.00 | 0.00 | 1014.7 | |
| 20260507125323 | 12 | 90 | 8.0 | 11.3 | 0.00 | 0.00 | 0.00 | 1015.7 | |
| 20260507124823 | 13 | 76 | 8.0 | 12.9 | 0.00 | 0.00 | 0.00 | 1013.7 | |
| 20260507124322 | 12 | 63 | 11.3 | 14.5 | 0.00 | 0.00 | 0.00 | 1014.7 | |
| 20260507123822 | 12 | 72 | 11.3 | 14.5 | 0.00 | 0.00 | 0.00 | 1016.9 | |
| 20260507123321 | 12 | 86 | 8.0 | 12.9 | 0.00 | 0.00 | 0.00 | 1010.7 | |
| 20260507122821 | 13 | 72 | 8.0 | 14.5 | 0.00 | 0.00 | 0.00 | 1012.7 | |
| 20260507122319 | 12 | 1 | 4.8 | 9.7 | 0.00 | 0.00 | 0.00 | 1018.7 | |
| 20260507121818 | 12 | 84 | 1.6 | 6.4 | 0.00 | 0.00 | 0.00 | 1013.0 | |
| 20260507121318 | 12 | 86 | 6.4 | 11.3 | 0.00 | 0.00 | 0.00 | 1014.8 | |
| 20260507120821 | 12 | 68 | 9.7 | 14.5 | 0.00 | 0.00 | 0.00 | 1014.6 | |
| 20260507120317 | 12 | 44 | 12.9 | 19.3 | 0.00 | 0.00 | 0.00 | 1026.3 | |
| 20260507115816 | 12 | 90 | 6.4 | 12.9 | 0.00 | 0.00 | 0.00 | 1010.9 | |
| 20260507115316 | 12 | 70 | 8.0 | 14.5 | 0.00 | 0.00 | 0.00 | 1013.5 | |
| 20260507114815 | 12 | 45 | 8.0 | 11.3 | 0.00 | 0.00 | 0.00 | 1016.6 | |
| 20260507114315 | 12 | 55 | 8.0 | 14.5 | 0.00 | 0.00 | 0.00 | 1016.8 | |
| 20260507113814 | 13 | 37 | 9.7 | 16.1 | 0.00 | 0.00 | 0.00 | 1012.2 | |
| 20260507113314 | 12 | 14 | 3.2 | 9.7 | 0.00 | 0.00 | 0.00 | 1011.1 | |
| 20260507112813 | 12 | 243 | 3.2 | 11.3 | 0.00 | 0.00 | 0.00 | 1015.9 | |
| 20260507112311 | 12 | 290 | 3.2 | 9.7 | 0.00 | 0.00 | 0.00 | 1015.3 | |
| 20260507111806 | 13 | 349 | 3.2 | 8.0 | 0.00 | 0.00 | 0.00 | 1009.9 | |
| 20260507111304 | 12 | 329 | 6.4 | 11.3 | 0.00 | 0.00 | 0.00 | 1011.3 | |
| 20260507110804 | 12 | 300 | 3.2 | 9.7 | 0.00 | 0.00 | 0.00 | 1012.0 | |
| 20260507110303 | 12 | 8 | 3.2 | 6.4 | 0.00 | 0.00 | 0.00 | 1015.6 | |
| 20260507105803 | 12 | 353 | 3.2 | 11.3 | 0.00 | 0.00 | 0.00 | 1015.8 | |
| 20260507105306 | 11 | 345 | 4.8 | 9.7 | 0.00 | 0.00 | 0.00 | 1015.3 | |
| 20260507104802 | 12 | 0 | 4.8 | 11.3 | 0.00 | 0.00 | 0.00 | 1012.2 | |
| 20260507104301 | 13 | 325 | 4.8 | 12.9 | 0.00 | 0.00 | 0.00 | 1018.4 | |
| 20260507103800 | 12 | 249 | 3.2 | 9.7 | 0.00 | 0.00 | 0.00 | 1014.8 | |
| 20260507103257 | 12 | 309 | 4.8 | 14.5 | 0.00 | 0.00 | 0.00 | 1016.1 | |
| 20260507102756 | 12 | 307 | 4.8 | 11.3 | 0.00 | 0.00 | 0.00 | 1016.5 | |
| 20260507102256 | 12 | 309 | 4.8 | 12.9 | 0.00 | 0.00 | 0.00 | 1013.3 | |
| 20260507101755 | 12 | 359 | 6.4 | 16.1 | 0.00 | 0.00 | 0.00 | 1012.8 | |
| 20260507100754 | 11 | 333 | 3.2 | 8.0 | 0.00 | 0.00 | 0.00 | 1014.4 | |
| 20260507100250 | 11 | 28 | 3.2 | 8.0 | 0.00 | 0.00 | 0.00 | 1016.5 | |
| 20260507095749 | 11 | 30 | 1.6 | 6.4 | 0.00 | 0.00 | 0.00 | 1015.4 | |
| 20260507095249 | 11 | 290 | 1.6 | 4.8 | 0.00 | 0.00 | 0.00 | 1019.4 | |
| 20260507094245 | 11 | 329 | 3.2 | 6.4 | 0.00 | 0.00 | 0.00 | 1018.3 | |
| 20260507093745 | 11 | 339 | 4.8 | 8.0 | 0.00 | 0.00 | 0.00 | 1016.5 | |
| 20260507093244 | 11 | 350 | 3.2 | 8.0 | 0.00 | 0.00 | 0.00 | 1010.3 | |
| 20260507092744 | 11 | 326 | 4.8 | 12.9 | 0.00 | 0.00 | 0.00 | 1014.4 | |
| 20260507092243 | 11 | 294 | 4.8 | 11.3 | 0.00 | 0.00 | 0.00 | 1014.9 | |
| 20260507091743 | 11 | 356 | 4.8 | 11.3 | 0.00 | 0.00 | 0.00 | 1019.3 | |
| 20260507091242 | 11 | 359 | 4.8 | 11.3 | 0.00 | 0.00 | 0.00 | 1013.6 | |
| 20260507090740 | 11 | 335 | 4.8 | 11.3 | 0.00 | 0.00 | 0.00 | 1011.3 | |
| 20260507090240 | 12 | 319 | 3.2 | 8.0 | 0.00 | 0.00 | 0.00 | 1016.1 | |
| 20260507085739 | 11 | 314 | 1.6 | 8.0 | 0.00 | 0.00 | 0.00 | 1015.5 | |
| 20260507085239 | 11 | 245 | 1.6 | 8.0 | 0.00 | 0.00 | 0.00 | 1013.9 | |
| 20260507084735 | 11 | 245 | 4.8 | 9.7 | 0.00 | 0.00 | 0.00 | 1016.2 | |
| 20260507084234 | 11 | 323 | 3.2 | 11.3 | 0.00 | 0.00 | 0.00 | 1016.4 | |
| 20260507083233 | 11 | 3 | 1.6 | 9.7 | 0.00 | 0.00 | 0.00 | 1011.9 | |
| 20260507082732 | 11 | 326 | 1.6 | 8.0 | 0.00 | 0.00 | 0.00 | 1012.9 | |
| 20260507082232 | 11 | 253 | 4.8 | 9.7 | 0.00 | 0.00 | 0.00 | 1016.1 | |
| 20260507081734 | 10 | 347 | 1.6 | 6.4 | 0.00 | 0.00 | 0.00 | 1015.9 | |
| 20260507081230 | 10 | 335 | 4.8 | 9.7 | 0.00 | 0.00 | 0.00 | 1011.4 | |
| 20260507080729 | 10 | 340 | 3.2 | 6.4 | 0.00 | 0.00 | 0.00 | 1014.8 | |
| 20260507080227 | 10 | 309 | 0.0 | 4.8 | 0.00 | 0.00 | 0.00 | 1011.8 | |
| 20260507075726 | 10 | 76 | 3.2 | 4.8 | 0.00 | 0.00 | 0.00 | 1013.3 | |
| 20260507075226 | 11 | 35 | 1.6 | 4.8 | 0.00 | 0.00 | 0.00 | 1016.6 | |
| 20260507074725 | 10 | 75 | 3.2 | 8.0 | 0.00 | 0.00 | 0.00 | 1009.8 | |
| 20260507074225 | 11 | 352 | 1.6 | 6.4 | 0.00 | 0.00 | 0.00 | 1014.3 | |
| 20260507073224 | 10 | 69 | 4.8 | 8.0 | 0.00 | 0.00 | 0.00 | 1016.9 | |
| 20260507072722 | 10 | 82 | 6.4 | 8.0 | 0.00 | 0.00 | 0.00 | 1011.5 | |
| 20260507072221 | 11 | 39 | 1.6 | 6.4 | 0.00 | 0.00 | 0.00 | 1013.7 | |
| 20260507071721 | 10 | 55 | 4.8 | 9.7 | 0.00 | 0.00 | 0.00 | 1012.7 | |
| 20260507071219 | 10 | 38 | 1.6 | 4.8 | 0.00 | 0.00 | 0.00 | 1016.8 | |
| 20260507070719 | 10 | 10 | 1.6 | 4.8 | 0.00 | 0.00 | 0.00 | 1010.3 | |
| 20260507070218 | 10 | 0 | 0.0 | 0.0 | 0.00 | 0.00 | 0.00 | 1014.8 | |
| 20260507065719 | 9 | 31 | 1.6 | 4.8 | 0.00 | 0.00 | 0.00 | 1011.6 | |
| 20260507065217 | 10 | 31 | 3.2 | 6.4 | 0.00 | 0.00 | 0.00 | 1011.5 | |
| 20260507064717 | 10 | 1 | 3.2 | 8.0 | 0.00 | 0.00 | 0.00 | 1014.0 | |
| 20260507064217 | 10 | 4 | 1.6 | 4.8 | 0.00 | 0.00 | 0.00 | 1012.4 | |
| 20260507063716 | 10 | 0 | 0.0 | 0.0 | 0.00 | 0.00 | 0.00 | 1012.3 | |
| 20260507063216 | 10 | 14 | 0.0 | 3.2 | 0.00 | 0.00 | 0.00 | 1012.2 | |
| 20260507062715 | 10 | 60 | 1.6 | 4.8 | 0.00 | 0.00 | 0.00 | 1014.8 | |
| 20260507062214 | 9 | 39 | 0.0 | 4.8 | 0.00 | 0.00 | 0.00 | 1011.3 | |
| 20260507061713 | 10 | 336 | 0.0 | 1.6 | 0.00 | 0.00 | 0.00 | 1012.8 | |
| 20260507061213 | 10 | 290 | 1.6 | 4.8 | 0.00 | 0.00 | 0.00 | 1012.7 | |
| 20260507060712 | 10 | 228 | 1.6 | 8.0 | 0.00 | 0.00 | 0.00 | 1016.6 | |
| 20260507060212 | 10 | 229 | 6.4 | 11.3 | 0.00 | 0.00 | 0.00 | 1013.7 | |
| 20260507055713 | 9 | 219 | 0.0 | 4.8 | 0.00 | 0.00 | 0.00 | 1013.9 | |
| 20260507055211 | 9 | 233 | 0.0 | 3.2 | 0.00 | 0.00 | 0.00 | 1012.2 | |
| 20260507054710 | 9 | 0 | 0.0 | 0.0 | 0.00 | 0.00 | 0.00 | 1015.0 | |
| 20260507054210 | 8 | 0 | 0.0 | 0.0 | 0.00 | 0.00 | 0.00 | 1011.4 | |
| 20260507053709 | 10 | 0 | 0.0 | 0.0 | 0.00 | 0.00 | 0.00 | 1011.8 | |
| 20260507053209 | 8 | 0 | 0.0 | 0.0 | 0.00 | 0.00 | 0.00 | 1015.3 | |
| 20260507052708 | 9 | 0 | 0.0 | 0.0 | 0.00 | 0.00 | 0.00 | 1013.9 | |
| 20260507052208 | 8 | 0 | 0.0 | 0.0 | 0.00 | 0.00 | 0.00 | 1012.2 | |
| 20260507051707 | 9 | 0 | 0.0 | 0.0 | 0.00 | 0.00 | 0.00 | 1013.2 | |
| 20260507051207 | 9 | 0 | 0.0 | 0.0 | 0.00 | 0.00 | 0.00 | 1015.4 | |
| 20260507050706 | 9 | 0 | 0.0 | 0.0 | 0.00 | 0.00 | 0.00 | 1010.8 | |
| 20260507050206 | 9 | 0 | 0.0 | 0.0 | 0.00 | 0.00 | 0.00 | 1011.3 | |
| 20260507045705 | 8 | 0 | 0.0 | 0.0 | 0.00 | 0.00 | 0.00 | 1015.6 | |
| 20260507045205 | 9 | 0 | 0.0 | 0.0 | 0.00 | 0.00 | 0.00 | 1014.2 | |
| 20260507044704 | 10 | 0 | 0.0 | 0.0 | 0.00 | 0.00 | 0.00 | 1012.2 | |
| 20260507044204 | 8 | 225 | 0.0 | 3.2 | 0.00 | 0.00 | 0.00 | 1011.9 | |
| 20260507043703 | 8 | 0 | 0.0 | 0.0 | 0.00 | 0.00 | 0.00 | 1010.1 | |
| 20260507043245 | 8 | 0 | 0.0 | 0.0 | 0.00 | 0.00 | 0.00 | 1013.2 | |
| 20260507043203 | 8 | 0 | 0.0 | 0.0 | 0.00 | 0.00 | 0.00 | 1013.2 | |
| 20260507042702 | 9 | 0 | 0.0 | 0.0 | 0.00 | 0.00 | 0.00 | 1013.3 | |
| 20260507042202 | 8 | 0 | 0.0 | 0.0 | 0.00 | 0.00 | 0.00 | 1010.7 | |
| 20260507041701 | 8 | 232 | 0.0 | 3.2 | 0.00 | 0.00 | 0.00 | 1011.4 | |
| 20260507041201 | 10 | 0 | 0.0 | 0.0 | 0.00 | 0.00 | 0.00 | 1013.2 | |
| 20260507040657 | 8 | 0 | 0.0 | 0.0 | 0.00 | 0.00 | 0.00 | 1012.3 | |
| 20260507040156 | 8 | 263 | 0.0 | 4.8 | 0.00 | 0.00 | 0.00 | 1014.8 | |
| 20260507035656 | 9 | 228 | 1.6 | 6.4 | 0.00 | 0.00 | 0.00 | 1013.3 | |
| 20260507035155 | 8 | 231 | 4.8 | 8.0 | 0.00 | 0.00 | 0.00 | 1016.5 | |
| 20260507034654 | 9 | 215 | 8.0 | 11.3 | 0.00 | 0.00 | 0.00 | 1010.7 | |
| 20260507034152 | 9 | 221 | 8.0 | 12.9 | 0.00 | 0.00 | 0.00 | 1010.9 | |
| 20260507033844 | 9 | 235 | 8.0 | 12.9 | 0.00 | 0.00 | 0.00 | 1012.0 | |
| 20260507033652 | 9 | 235 | 8.0 | 12.9 | 0.00 | 0.00 | 0.00 | 1012.0 | |
| 20260507033151 | 10 | 253 | 9.7 | 17.7 | 0.00 | 0.00 | 0.00 | 1009.9 | |
| 20260507032651 | 10 | 225 | 11.3 | 16.1 | 0.00 | 0.00 | 0.00 | 1009.5 | |
| 20260507032150 | 9 | 225 | 11.3 | 19.3 | 0.00 | 0.00 | 0.00 | 1011.0 | |
| 20260507031652 | 9 | 228 | 12.9 | 19.3 | 0.00 | 0.00 | 0.00 | 1012.0 | |
| 20260507030649 | 8 | 224 | 12.9 | 20.9 | 0.00 | 0.00 | 0.00 | 1007.9 | |
| 20260507030148 | 8 | 211 | 12.9 | 20.9 | 0.00 | 0.00 | 0.00 | 1006.7 | |
| 20260507025648 | 9 | 200 | 11.3 | 17.7 | 0.00 | 0.00 | 0.00 | 1011.8 | |
| 20260507025147 | 9 | 215 | 12.9 | 24.1 | 0.00 | 0.00 | 0.00 | 1021.4 | |
| 20260507024647 | 8 | 203 | 12.9 | 24.1 | 0.00 | 0.00 | 0.00 | 1014.7 | |
| 20260507024146 | 8 | 239 | 14.5 | 25.7 | 0.00 | 0.00 | 0.00 | 1008.5 | |
| 20260507023646 | 8 | 233 | 12.9 | 22.5 | 0.00 | 0.00 | 0.00 | 1010.9 | |
| 20260507023145 | 8 | 248 | 14.5 | 24.1 | 0.00 | 0.00 | 0.00 | 1011.8 | |
| 20260507022645 | 9 | 240 | 14.5 | 25.7 | 0.00 | 0.00 | 0.00 | 1013.9 | |
| 20260507022144 | 8 | 246 | 12.9 | 29.0 | 0.00 | 0.00 | 0.00 | 1013.7 | |
| 20260507021644 | 9 | 238 | 16.1 | 27.4 | 0.00 | 0.00 | 0.00 | 1015.9 | |
| 20260507021143 | 9 | 236 | 17.7 | 30.6 | 0.00 | 0.00 | 0.00 | 1000.8 | |
| 20260507020644 | 10 | 243 | 14.5 | 27.4 | 0.00 | 0.00 | 0.00 | 1014.7 | |
| 20260507020142 | 10 | 201 | 12.9 | 24.1 | 0.00 | 0.00 | 0.00 | 1011.3 | |
| 20260507015642 | 8 | 242 | 12.9 | 19.3 | 0.00 | 0.00 | 0.00 | 1010.0 | |
| 20260507015142 | 10 | 226 | 9.7 | 20.9 | 0.00 | 0.00 | 0.00 | 1008.5 | |
| 20260507014641 | 9 | 233 | 9.7 | 19.3 | 0.00 | 0.00 | 0.00 | 1014.7 | |
| 20260507014141 | 9 | 253 | 8.0 | 16.1 | 0.00 | 0.00 | 0.00 | 1009.5 | |
| 20260507013640 | 10 | 250 | 9.7 | 14.5 | 0.00 | 0.00 | 0.00 | 1017.2 | |
| 20260507013139 | 10 | 225 | 4.8 | 9.7 | 0.00 | 0.00 | 0.00 | 1012.9 | |
| 20260507012639 | 9 | 235 | 9.7 | 17.7 | 0.00 | 0.00 | 0.00 | 1009.1 | |
| 20260507012138 | 9 | 210 | 6.4 | 17.7 | 0.00 | 0.00 | 0.00 | 1009.8 | |
| 20260507011638 | 10 | 219 | 4.8 | 11.3 | 0.00 | 0.00 | 0.00 | 1015.7 | |
| 20260507011137 | 10 | 238 | 9.7 | 16.1 | 0.00 | 0.00 | 0.00 | 1012.2 | |
| 20260507010636 | 9 | 228 | 9.7 | 16.1 | 0.00 | 0.00 | 0.00 | 1016.6 | |
| 20260507010135 | 9 | 243 | 9.7 | 16.1 | 0.00 | 0.00 | 0.00 | 1010.3 | |
| 20260507005635 | 9 | 246 | 6.4 | 19.3 | 0.00 | 0.00 | 0.00 | 1011.9 | |
| 20260507005134 | 10 | 233 | 4.8 | 8.0 | 0.00 | 0.00 | 0.00 | 1010.4 | |
| 20260507004634 | 10 | 242 | 6.4 | 11.3 | 0.00 | 0.00 | 0.00 | 1011.9 | |
| 20260507004133 | 10 | 232 | 9.7 | 22.5 | 0.00 | 0.00 | 0.00 | 1010.3 | |
| 20260507003633 | 9 | 246 | 8.0 | 16.1 | 0.00 | 0.00 | 0.00 | 1015.7 | |
| 20260507003132 | 10 | 249 | 9.7 | 14.5 | 0.00 | 0.00 | 0.00 | 1012.9 | |
| 20260507002632 | 10 | 242 | 6.4 | 11.3 | 0.00 | 0.00 | 0.00 | 1010.8 | |
| 20260507002131 | 8 | 232 | 4.8 | 9.7 | 0.00 | 0.00 | 0.00 | 1013.7 | |
| 20260507001631 | 8 | 232 | 3.2 | 8.0 | 0.00 | 0.00 | 0.00 | 1015.6 | |
| 20260507001130 | 9 | 231 | 1.6 | 8.0 | 0.00 | 0.00 | 0.00 | 1012.3 | |
| 20260507000630 | 9 | 242 | 3.2 | 9.7 | 0.00 | 0.00 | 0.00 | 1014.4 | |
| 20260507000129 | 9 | 233 | 1.6 | 6.4 | 0.00 | 0.00 | 0.00 | 1011.8 | |
| 20260506235628 | 10 | 242 | 4.8 | 9.7 | 0.00 | 0.00 | 0.00 | 1010.5 | |
| 20260506235127 | 9 | 229 | 6.4 | 12.9 | 0.00 | 0.00 | 0.00 | 1008.6 | |
| 20260506234627 | 10 | 233 | 6.4 | 11.3 | 0.00 | 0.00 | 0.00 | 1014.9 | |
| 20260506234126 | 10 | 226 | 4.8 | 11.3 | 0.00 | 0.00 | 0.00 | 1010.0 | |
| 20260506233625 | 10 | 228 | 6.4 | 11.3 | 0.00 | 0.00 | 0.00 | 1015.3 | |
| 20260506233124 | 10 | 224 | 4.8 | 11.3 | 0.00 | 0.00 | 0.00 | 1009.5 | |
| 20260506232624 | 10 | 243 | 9.7 | 16.1 | 0.00 | 0.00 | 0.00 | 1009.6 | |
| 20260506232123 | 8 | 245 | 8.0 | 16.1 | 0.00 | 0.00 | 0.00 | 1011.0 | |
| 20260506231623 | 10 | 224 | 6.4 | 11.3 | 0.00 | 0.00 | 0.00 | 1009.1 | |
| 20260506231122 | 9 | 224 | 8.0 | 16.1 | 0.00 | 0.00 | 0.00 | 1013.6 | |
| 20260506230622 | 9 | 224 | 9.7 | 16.1 | 0.00 | 0.00 | 0.00 | 1012.8 | |
| 20260506230120 | 10 | 238 | 9.7 | 20.9 | 0.00 | 0.00 | 0.00 | 1008.8 | |
| 20260506225618 | 10 | 228 | 11.3 | 22.5 | 0.00 | 0.00 | 0.00 | 1008.7 | |
| 20260506225117 | 9 | 235 | 11.3 | 25.7 | 0.00 | 0.00 | 0.00 | 1009.5 | |
| 20260506224614 | 9 | 217 | 11.3 | 20.9 | 0.00 | 0.00 | 0.00 | 1013.6 | |
| 20260506224114 | 9 | 225 | 11.3 | 20.9 | 0.00 | 0.00 | 0.00 | 1008.6 | |
| 20260506223613 | 10 | 233 | 11.3 | 19.3 | 0.00 | 0.00 | 0.00 | 1017.4 | |
| 20260506223113 | 10 | 233 | 11.3 | 20.9 | 0.00 | 0.00 | 0.00 | 1009.0 | |
| 20260506222611 | 9 | 236 | 11.3 | 22.5 | 0.00 | 0.00 | 0.00 | 1015.9 | |
| 20260506222113 | 9 | 231 | 11.3 | 19.3 | 0.00 | 0.00 | 0.00 | 1004.4 | |
| 20260506221610 | 9 | 229 | 12.9 | 24.1 | 0.00 | 0.00 | 0.00 | 1009.7 | |
| 20260506221110 | 9 | 226 | 9.7 | 19.3 | 0.00 | 0.00 | 0.00 | 1013.2 | |
| 20260506220610 | 10 | 240 | 12.9 | 27.4 | 0.00 | 0.00 | 0.00 | 1012.6 | |
| 20260506220107 | 10 | 232 | 14.5 | 22.5 | 0.00 | 0.00 | 0.00 | 1010.9 | |
| 20260506215605 | 9 | 240 | 11.3 | 24.1 | 0.00 | 0.00 | 0.00 | 1017.4 | |
| 20260506215105 | 9 | 232 | 12.9 | 24.1 | 0.00 | 0.00 | 0.00 | 1007.0 | |
| 20260506214604 | 9 | 229 | 9.7 | 17.7 | 0.00 | 0.00 | 0.97 | 1010.1 | |
| 20260506214104 | 10 | 229 | 12.9 | 24.1 | 0.00 | 0.00 | 0.97 | 1009.0 | |
| 20260506213603 | 9 | 238 | 9.7 | 17.7 | 0.00 | 0.00 | 0.97 | 1012.4 | |
| 20260506213103 | 11 | 242 | 9.7 | 16.1 | 0.00 | 0.00 | 0.97 | 1013.8 | |
| 20260506212602 | 10 | 222 | 9.7 | 17.7 | 0.00 | 0.00 | 0.97 | 1010.3 | |
| 20260506212102 | 10 | 225 | 9.7 | 16.1 | 0.00 | 0.00 | 0.97 | 1013.4 | |
| 20260506211602 | 10 | 240 | 9.7 | 16.1 | 0.00 | 0.00 | 0.97 | 1011.7 | |
| 20260506211100 | 10 | 224 | 9.7 | 14.5 | 0.00 | 0.00 | 0.97 | 1009.4 | |
| 20260506210059 | 10 | 239 | 11.3 | 17.7 | 0.00 | 0.00 | 0.97 | 1010.7 | |
| 20260506205558 | 10 | 236 | 9.7 | 17.7 | 0.00 | 0.00 | 0.97 | 1011.5 | |
| 20260506205058 | 9 | 245 | 12.9 | 22.5 | 0.00 | 0.00 | 0.97 | 1014.5 | |
| 20260506204557 | 9 | 235 | 11.3 | 17.7 | 0.00 | 0.00 | 0.97 | 1010.7 | |
| 20260506204057 | 9 | 228 | 8.0 | 12.9 | 0.00 | 0.00 | 0.97 | 1013.6 | |
| 20260506203556 | 10 | 226 | 9.7 | 16.1 | 0.00 | 0.00 | 0.97 | 1012.8 | |
| 20260506203056 | 10 | 225 | 8.0 | 12.9 | 0.00 | 0.00 | 0.97 | 1010.0 | |
| 20260506202555 | 10 | 228 | 8.0 | 16.1 | 0.00 | 0.00 | 0.97 | 1010.8 | |
| 20260506202055 | 10 | 256 | 6.4 | 14.5 | 0.00 | 0.00 | 0.97 | 1014.5 | |
| 20260506201554 | 10 | 236 | 8.0 | 14.5 | 0.00 | 0.00 | 0.97 | 1013.6 | |
| 20260506201054 | 9 | 233 | 9.7 | 16.1 | 0.00 | 0.00 | 0.97 | 1012.4 | |
| 20260506200554 | 10 | 222 | 8.0 | 17.7 | 0.00 | 0.00 | 0.97 | 1009.8 | |
| 20260506200053 | 10 | 233 | 4.8 | 9.7 | 0.00 | 0.00 | 0.97 | 1014.9 | |
| 20260506195552 | 10 | 228 | 3.2 | 9.7 | 0.00 | 0.00 | 0.97 | 1013.6 | |
| 20260506195052 | 10 | 243 | 4.8 | 9.7 | 0.00 | 0.00 | 0.97 | 1009.1 | |
| 20260506194551 | 9 | 228 | 1.6 | 4.8 | 0.00 | 0.00 | 0.97 | 1009.4 | |
| 20260506194051 | 10 | 231 | 0.0 | 3.2 | 0.00 | 0.00 | 0.97 | 1008.8 | |
| 20260506193550 | 10 | 0 | 0.0 | 0.0 | 0.00 | 0.00 | 0.97 | 1009.9 | |
| 20260506193050 | 10 | 283 | 0.0 | 3.2 | 0.00 | 0.00 | 0.97 | 1010.4 | |
| 20260506192549 | 9 | 231 | 1.6 | 6.4 | 0.00 | 0.00 | 0.97 | 1011.4 | |
| 20260506192049 | 10 | 0 | 0.0 | 0.0 | 0.00 | 0.00 | 0.97 | 1008.4 | |
| 20260506191549 | 10 | 0 | 0.0 | 0.0 | 0.00 | 0.00 | 0.97 | 1009.3 | |
| 20260506191048 | 10 | 0 | 0.0 | 0.0 | 0.00 | 0.00 | 0.97 | 1010.7 | |
| 20260506190547 | 10 | 238 | 0.0 | 1.6 | 0.00 | 0.00 | 0.97 | 1010.5 | |
| 20260506190047 | 10 | 243 | 1.6 | 4.8 | 0.00 | 0.00 | 0.97 | 1011.1 | |
| 20260506185546 | 10 | 231 | 1.6 | 6.4 | 0.00 | 0.00 | 0.97 | 1009.9 | |
| 20260506185046 | 10 | 229 | 3.2 | 6.4 | 0.00 | 0.00 | 0.97 | 1012.7 | |
| 20260506184546 | 9 | 224 | 1.6 | 4.8 | 0.00 | 0.00 | 0.97 | 1007.2 | |
| 20260506184045 | 10 | 228 | 1.6 | 3.2 | 0.00 | 0.00 | 0.97 | 1011.1 | |
| 20260506183545 | 10 | 224 | 1.6 | 4.8 | 0.00 | 0.00 | 0.97 | 1010.7 | |
| 20260506183044 | 11 | 0 | 0.0 | 0.0 | 0.00 | 0.00 | 0.97 | 1010.6 | |
| 20260506182544 | 10 | 229 | 0.0 | 3.2 | 0.00 | 0.00 | 0.97 | 1008.8 |